This is the latest recevied weather packets stored in our database for station/object IZ1UQG-N2. If no packets are shown the sender has not sent any weather packets the latest 1 day(s).
| Time | Temp. | Humidity | Pressure | Rain* | Wind** | Luminosity | Snow |
|---|---|---|---|---|---|---|---|
| 1777985630 | 12.22° C | 89% | 1012.2 hPa | 0.25 mm | 0.45 m/s, 2° | 81 W/m² | - |
| 1777985569 | 12.22° C | 89% | 1012.2 hPa | 0.25 mm | 0.45 m/s, 1° | 79 W/m² | - |
| 1777985509 | 12.22° C | 89% | 1012.1 hPa | 0.25 mm | 0.45 m/s, 1° | 76 W/m² | - |
| 1777985467 | 12.22° C | 89% | 1012.1 hPa | 0.25 mm | 0.45 m/s, 1° | 76 W/m² | - |
| 1777985449 | 12.22° C | 89% | 1012.1 hPa | 0.25 mm | 0.45 m/s, 3° | 74 W/m² | - |
| 1777985391 | 12.22° C | 89% | 1012.2 hPa | 0.25 mm | 0.45 m/s, 2° | 74 W/m² | - |
| 1777985330 | 12.22° C | 89% | 1012.1 hPa | 0 mm | 0.45 m/s, 1° | 76 W/m² | - |
| 1777985287 | 12.22° C | 89% | 1012.1 hPa | 0 mm | 0.45 m/s, 1° | 76 W/m² | - |
| 1777985269 | 12.22° C | 89% | 1012.2 hPa | 0 mm | 0.89 m/s, 359° | 76 W/m² | - |
| 1777985209 | 12.22° C | 89% | 1012.1 hPa | 0 mm | 0.89 m/s, 357° | 77 W/m² | - |
| 1777985149 | 12.22° C | 89% | 1012.1 hPa | 0 mm | 0.89 m/s, 357° | 79 W/m² | - |
| 1777985107 | 12.22° C | 89% | 1012.1 hPa | 0 mm | 0.89 m/s, 357° | 79 W/m² | - |
| 1777985089 | 12.22° C | 89% | 1012.1 hPa | 0 mm | 0.89 m/s, 357° | 79 W/m² | - |
| 1777985030 | 12.22° C | 89% | 1012.1 hPa | 0 mm | 0.89 m/s, 358° | 81 W/m² | - |
| 1777984970 | 12.22° C | 89% | 1012.1 hPa | 0 mm | 0.89 m/s, 357° | 81 W/m² | - |
| 1777984927 | 12.22° C | 89% | 1012.1 hPa | 0 mm | 0.89 m/s, 357° | 81 W/m² | - |
| 1777984909 | 12.22° C | 89% | 1012.1 hPa | 0 mm | 0.89 m/s, 356° | 84 W/m² | - |
| 1777984849 | 12.22° C | 89% | 1012 hPa | 0 mm | 0.89 m/s, 355° | 86 W/m² | - |
| 1777984789 | 12.22° C | 88% | 1012 hPa | 0 mm | 0.89 m/s, 355° | 88 W/m² | - |
| 1777984748 | 12.22° C | 88% | 1012 hPa | 0 mm | 0.89 m/s, 356° | 88 W/m² | - |
| 1777984730 | 12.22° C | 88% | 1012 hPa | 0 mm | 0.89 m/s, 356° | 88 W/m² | - |
| 1777984670 | 12.22° C | 88% | 1012 hPa | 0 mm | 0.89 m/s, 357° | 86 W/m² | - |
| 1777984610 | 12.22° C | 89% | 1012 hPa | 0 mm | 0.89 m/s, 359° | 84 W/m² | - |
| 1777984568 | 12.22° C | 89% | 1012 hPa | 0 mm | 0.89 m/s, 359° | 84 W/m² | - |
| 1777984550 | 12.22° C | 88% | 1012 hPa | 0 mm | 0.89 m/s, 358° | 83 W/m² | - |
* Rain latest hour (hover to see other rain measurements)
** Current wind speed in m/s (hover to see current wind gust speed)